Location: Indian Springs
(36.5700°N, 115.6700°W)
Time: 04:19:26
(UTC-08:00)

Amateur Radio Satellites - All Passes

Search period start: 29 January 2015 03:49
Search period end: 30 January 2015 03:49
Location: Indian Springs, 36.5700°N, 115.6700°W

Satellite Date Start Highest point End Downlink Frequencies (MHz)
Time Altitude Azimuth
DANDE 29 Jan 03:51:19 03:59:19 77° 96° (E) 04:08:03 436.750
ISS 29 Jan 03:58:52 04:02:03 43° 37° (NE) 04:05:12 145.825
JAS-2 29 Jan 04:20:04 04:25:47 66° 101° (ESE) 04:32:16 435.910
CUSAT 1 29 Jan 04:21:43 04:29:43 61° 283° (WNW) 04:38:04 437.405
MOZHAYETS 4 29 Jan 04:26:50 04:31:05 36° 263° (W) 04:35:19
HORYU 2 29 Jan 04:34:39 04:36:37 12° 294° (WNW) 04:38:21 437.375
CUBESAT XI-V 29 Jan 04:42:33 04:45:57 21° 69° (ENE) 04:49:30 437.345
STRAND 1 29 Jan 04:45:23 04:48:50 19° 67° (ENE) 04:52:27 437.568
PRISM 29 Jan 04:48:55 04:52:39 35° 72° (ENE) 04:56:26 437.425
AO-7 29 Jan 05:14:41 05:22:15 39° 296° (WNW) 05:29:38 29.400- 29.500
Cubesat XI-IV 29 Jan 05:18:49 05:23:26 30° 96° (E) 05:28:08 437.490
PCSat 29 Jan 05:32:08 05:35:31 16° 314° (NW) 05:38:44 145.827
RS-15 29 Jan 05:34:35 05:45:16 56° 308° (NW) 05:55:59 29.354- 29.394
ISS 29 Jan 05:36:11 05:38:20 16° 230° (SW) 05:40:23 145.825
DANDE 29 Jan 05:37:15 05:43:47 24° 296° (WNW) 05:50:13 436.750
CUTE-I 29 Jan 05:38:29 05:43:37 45° 99° (E) 05:48:46 437.470
YUBILEINY 29 Jan 06:01:12 06:09:44 54° 78° (ENE) 06:18:20 435.215
JAS-2 29 Jan 06:06:55 06:10:36 17° 293° (WNW) 06:14:15 435.910
CUSAT 1 29 Jan 06:11:39 06:14:41 12° 303° (WNW) 06:17:01 437.405
CUBESAT XI-V 29 Jan 06:19:06 06:23:15 32° 264° (W) 06:27:23 437.345
STRAND 1 29 Jan 06:22:51 06:27:44 46° 261° (W) 06:32:38 437.568
PRISM 29 Jan 06:25:48 06:28:21 15° 267° (W) 06:30:44 437.425
VERMONT LUNAR 29 Jan 06:31:02 06:32:15 12° 143° (SE) 06:33:36 437.305
Cubesat XI-IV 29 Jan 06:58:48 07:03:32 31° 291° (WNW) 07:08:10 437.490
HO-68 29 Jan 07:16:12 07:20:31 18° 90° (E) 07:25:15 435.675
CUTE-I 29 Jan 07:19:23 07:23:25 21° 293° (WNW) 07:27:17 437.470
PHONESAT 2.4 29 Jan 07:28:14 07:30:48 19° 146° (SE) 07:33:27 2401.200-2431.200
GOMX 1 29 Jan 07:41:08 07:45:09 22° 91° (E) 07:49:11 467.674
CANX-2 29 Jan 07:44:20 07:47:29 21° 93° (E) 07:50:44 2200.000
BRITE-PL 29 Jan 07:44:54 07:50:03 36° 95° (E) 07:55:01 437.365/2234.400
DOVE 4 29 Jan 07:53:40 07:57:18 20° 91° (E) 08:00:58 437.250
RS-15 29 Jan 07:53:52 08:01:01 18° 338° (NNW) 08:07:57 29.354- 29.394
AAUSAT CUBESAT 2 29 Jan 07:56:59 07:59:24 16° 92° (E) 08:02:00 437.432
YUBILEINY 29 Jan 07:58:51 08:06:11 29° 274° (W) 08:13:15 435.215
VERMONT LUNAR 29 Jan 08:06:31 08:09:57 62° 157° (SSE) 08:13:25 437.305
CUTE 1.7 + AOD 2 29 Jan 08:07:56 08:11:49 36° 97° (E) 08:15:43 437.475
Oscar 11 29 Jan 08:11:55 08:12:42 11° 89° (E) 08:13:47 145.826/435.025
SO-50 29 Jan 08:35:43 08:37:57 14° 109° (ESE) 08:40:27 436.795
ANTELSAT 29 Jan 08:37:29 08:40:48 20° 69° (ENE) 08:44:16 437.575/2403.000
SEEDS 29 Jan 08:38:20 08:42:33 73° 102° (ESE) 08:46:42 437.485
TIGRISAT 29 Jan 08:44:52 08:48:30 23° 70° (ENE) 08:52:14 435.000
UKube-1 29 Jan 08:45:54 08:48:19 15° 92° (E) 08:50:55 .
CUBEBUG 2 29 Jan 08:52:30 08:56:07 24° 93° (E) 08:59:44 437.445
NANOSAT C BR1 29 Jan 08:55:48 08:58:23 16° 68° (ENE) 09:01:07 145.865
ZACube-1 29 Jan 09:00:13 09:03:21 19° 92° (E) 09:06:33 437.345
HO-68 29 Jan 09:01:51 09:09:00 74° 288° (WNW) 09:16:08 435.675
COMPASS 1 29 Jan 09:04:54 09:09:03 64° 284° (WNW) 09:13:08 437.405
HUMSAT D 29 Jan 09:04:59 09:05:33 10° 89° (E) 09:06:25 437.325/437.525
PHONESAT 2.4 29 Jan 09:05:28 09:09:05 88° 167° (SSE) 09:12:43 2401.200-2431.200
DX 1 29 Jan 09:05:43 09:09:27 27° 96° (E) 09:13:12 434.975-435.025
QB50P2 29 Jan 09:09:17 09:12:38 24° 70° (ENE) 09:16:07 145.880/145.840
FUNcube-1 29 Jan 09:11:45 09:15:25 26° 94° (E) 09:19:04 145.935
CINEMA 3 29 Jan 09:16:44 09:21:36 83° 102° (ESE) 09:26:11 145.822/145.860
QB50P1 29 Jan 09:18:15 09:21:55 29° 71° (ENE) 09:25:40 145.935-145.965
GOMX 1 29 Jan 09:18:25 09:23:30 41° 288° (WNW) 09:28:17 467.674
CANX-2 29 Jan 09:19:51 09:23:28 27° 288° (WNW) 09:27:00 2200.000
BRITE-PL 29 Jan 09:23:35 09:28:24 28° 291° (WNW) 09:32:56 437.365/2234.400
DELFI C3 29 Jan 09:26:02 09:30:05 70° 101° (E) 09:34:06 145.870
BUGSAT 1 29 Jan 09:29:50 09:33:20 29° 71° (ENE) 09:36:57 437.445
DOVE 4 29 Jan 09:30:26 09:35:20 41° 288° (WNW) 09:39:55 437.250
AISAT 29 Jan 09:30:57 09:34:07 19° 93° (E) 09:37:26 437.250
AAUSAT CUBESAT 2 29 Jan 09:31:27 09:35:16 35° 287° (WNW) 09:39:01 437.432
UWE-3 29 Jan 09:31:50 09:36:16 57° 100° (E) 09:40:32 435.000/436.395/437.385
POLYITAN 1 29 Jan 09:32:38 09:36:42 43° 74° (ENE) 09:40:50 437.675
UNISAT 6 29 Jan 09:36:32 09:41:16 86° 77° (ENE) 09:46:00 437.425
CUTE 1.7 + AOD 2 29 Jan 09:44:46 09:47:31 17° 291° (WNW) 09:50:06 437.475
VERMONT LUNAR 29 Jan 09:44:47 09:48:10 46° 352° (N) 09:51:34 437.305
Oscar 11 29 Jan 09:45:06 09:49:19 55° 285° (WNW) 09:53:30 145.826/435.025
AIST 1 29 Jan 09:52:21 09:54:30 14° 88° (E) 09:56:52
POPSAT HIP 1 29 Jan 09:52:25 09:56:40 75° 77° (ENE) 10:00:59 437.405
DUCHIFAT 1 29 Jan 09:55:02 09:59:16 80° 77° (ENE) 10:03:35 145.980
VELOX 1 29 Jan 09:58:23 10:02:34 38° 98° (E) 10:06:46 145.980
CUBEBUG 1 29 Jan 10:07:17 10:10:23 19° 93° (E) 10:13:37 437.445
GONETS M04 29 Jan 10:11:06 10:13:37 12° 58° (ENE) 10:16:54
ANTELSAT 29 Jan 10:12:58 10:17:23 38° 263° (W) 10:21:45 437.575/2403.000
50 SAT 29 Jan 10:13:05 10:17:03 53° 99° (E) 10:20:58 437.505
SO-50 29 Jan 10:13:36 10:18:03 54° 304° (NW) 10:22:41 436.795
RS-15 29 Jan 10:13:52 10:19:43 15° 14° (NNE) 10:25:59 29.354- 29.394
AIST 2 29 Jan 10:17:55 10:19:54 13° 44° (NE) 10:22:02 435.215
BEESAT 2 29 Jan 10:20:27 10:24:06 29° 52° (NE) 10:27:43 435.950
UKube-1 29 Jan 10:20:37 10:24:44 41° 287° (WNW) 10:28:49 .
TIGRISAT 29 Jan 10:20:52 10:25:07 32° 264° (W) 10:29:18 435.000
CUBEBUG 2 29 Jan 10:28:57 10:32:50 27° 290° (WNW) 10:36:32 437.445
NANOSAT C BR1 29 Jan 10:30:00 10:33:59 38° 262° (W) 10:38:00 145.865
BEESAT 3 29 Jan 10:34:13 10:38:13 45° 56° (NE) 10:42:10 437.485
ZACube-1 29 Jan 10:35:55 10:39:51 31° 288° (WNW) 10:43:37 437.345
HUMSAT D 29 Jan 10:37:40 10:41:48 53° 285° (WNW) 10:45:51 437.325/437.525
DX 1 29 Jan 10:42:02 10:45:37 24° 290° (WNW) 10:49:04 434.975-435.025
PHONESAT 2.4 29 Jan 10:44:23 10:47:52 43° 356° (N) 10:51:21 2401.200-2431.200
QB50P2 29 Jan 10:44:53 10:48:30 26° 265° (W) 10:52:04 145.880/145.840
FUNcube-1 29 Jan 10:48:08 10:51:42 24° 290° (WNW) 10:55:06 145.935
HO-68 29 Jan 10:52:40 10:55:43 13° 304° (WNW) 10:58:20 435.675
QB50P1 29 Jan 10:54:36 10:57:52 20° 266° (W) 11:01:02 145.935-145.965
Oscar 19 29 Jan 11:00:49 11:02:34 12° 63° (ENE) 11:04:37 437.125/150
BUGSAT 1 29 Jan 11:05:55 11:08:55 19° 267° (W) 11:11:49 437.445
AISAT 29 Jan 11:06:46 11:10:53 34° 288° (WNW) 11:14:55 437.250
ESTCUBE 1 29 Jan 11:09:37 11:14:10 76° 283° (WNW) 11:18:41 437.505/2401.250
UWE-3 29 Jan 11:10:27 11:12:20 12° 294° (WNW) 11:13:59 435.000/436.395/437.385
POLYITAN 1 29 Jan 11:10:37 11:12:56 14° 269° (W) 11:15:03 437.675
VERMONT LUNAR 29 Jan 11:23:13 11:26:37 47° 9° (N) 11:30:02 437.305
SPROUT 29 Jan 11:27:30 11:31:30 35° 97° (E) 11:35:30 437.525
AIST 1 29 Jan 11:27:55 11:31:52 37° 282° (WNW) 11:35:51
VELOX 1 29 Jan 11:35:48 11:38:55 18° 292° (WNW) 11:41:52 145.980
CUBEBUG 1 29 Jan 11:42:51 11:46:53 34° 288° (WNW) 11:50:53 437.445
50 SAT 29 Jan 11:50:46 11:51:45 11° 293° (WNW) 11:52:30 437.505
AIST 2 29 Jan 11:54:47 11:59:02 66° 243° (WSW) 12:03:11 435.215
BEESAT 2 29 Jan 11:58:53 12:02:12 23° 248° (WSW) 12:05:23 435.950
GONETS M04 29 Jan 12:03:45 12:12:27 72° 81° (E) 12:21:08
TISAT 1 29 Jan 12:03:51 12:08:10 86° 283° (WNW) 12:12:27 437.305
BEESAT 3 29 Jan 12:13:48 12:16:00 14° 250° (WSW) 12:18:00 437.485
Gurwin Techsat 1B 29 Jan 12:14:11 12:16:56 15° 64° (ENE) 12:19:56 435.225
PHONESAT 2.4 29 Jan 12:23:09 12:26:45 59° 13° (NNE) 12:30:22 2401.200-2431.200
RS-15 29 Jan 12:26:10 12:36:35 41° 46° (NE) 12:47:35 29.354- 29.394
SWISSCUBE 29 Jan 12:33:41 12:37:48 29° 96° (E) 12:41:59 437.505
Oscar 19 29 Jan 12:36:08 12:41:20 79° 256° (WSW) 12:46:34 437.125/150
PCSat 29 Jan 12:36:41 12:41:38 35° 55° (NE) 12:46:36 145.827
BEESAT 29 Jan 12:49:12 12:53:39 39° 98° (E) 12:58:08 436.000
ITAMSAT 1 29 Jan 12:52:54 12:57:53 52° 73° (ENE) 13:02:56 435.822/435.867
ITUPSAT 1 29 Jan 12:53:10 12:57:42 42° 98° (E) 13:02:15 437.325
VERMONT LUNAR 29 Jan 13:01:21 13:04:48 58° 205° (SSW) 13:08:17 437.305
SPROUT 29 Jan 13:04:20 13:07:22 18° 291° (WNW) 13:10:15 437.525
KKS-1 29 Jan 13:09:22 13:10:00 10° 89° (E) 13:10:57 437.445
CUSAT 1 29 Jan 13:27:57 13:30:00 12° 57° (ENE) 13:32:11 437.405
Gurwin Techsat 1B 29 Jan 13:51:10 13:56:25 65° 258° (WSW) 14:01:43 435.225
HORYU 2 29 Jan 13:52:06 13:56:15 38° 73° (ENE) 14:00:27 437.375
PHONESAT 2.4 29 Jan 14:01:51 14:05:17 39° 209° (SSW) 14:08:43 2401.200-2431.200
GONETS M04 29 Jan 14:02:23 14:08:33 21° 277° (W) 14:14:16
SWISSCUBE 29 Jan 14:11:37 14:15:37 26° 290° (WNW) 14:19:30 437.505
AO-7 29 Jan 14:17:48 14:25:41 49° 66° (ENE) 14:33:40 29.400- 29.500
PCSat 29 Jan 14:20:19 14:24:57 28° 251° (WSW) 14:29:28 145.827
BEESAT 29 Jan 14:27:48 14:31:17 20° 292° (WNW) 14:34:37 436.000
ITUPSAT 1 29 Jan 14:31:59 14:35:20 19° 293° (WNW) 14:38:32 437.325
JAS-2 29 Jan 14:32:33 14:36:04 18° 67° (ENE) 14:39:39 435.910
ITAMSAT 1 29 Jan 14:34:27 14:37:46 16° 269° (W) 14:40:52 435.822/435.867
STARS 29 Jan 14:35:38 14:40:06 71° 102° (ESE) 14:44:29 437.465
RS-15 29 Jan 14:38:24 14:49:35 60° 247° (WSW) 15:01:10 29.354- 29.394
DANDE 29 Jan 14:40:45 14:47:04 51° 74° (ENE) 14:51:45 436.750
VERMONT LUNAR 29 Jan 14:41:23 14:42:31 11° 217° (SW) 14:43:31 437.305
KKS-1 29 Jan 14:42:42 14:47:09 61° 285° (WNW) 14:51:33 437.445
M-CUBED/EXP-1 PRIME 29 Jan 14:59:25 15:02:37 43° 105° (ESE) 15:05:56 437.505
CUSAT 1 29 Jan 15:08:24 15:14:22 71° 265° (W) 15:18:44 437.405
HORYU 2 29 Jan 15:30:04 15:33:07 17° 268° (W) 15:35:59 437.375
AUBIESAT-1 29 Jan 15:32:17 15:35:35 67° 289° (WNW) 15:39:01 437.475
O/OREOS (USA 219) 29 Jan 15:32:56 15:37:23 72° 109° (ESE) 15:41:54 437.305
AO-7 29 Jan 16:11:12 16:18:42 34° 263° (W) 16:26:03 29.400- 29.500
JAS-2 29 Jan 16:15:34 16:20:59 48° 260° (W) 16:26:03 435.910
MOZHAYETS 4 29 Jan 16:24:05 16:28:37 62° 100° (E) 16:33:08
DANDE 29 Jan 16:25:48 16:29:37 17° 279° (W) 16:32:39 436.750
Cubesat XI-IV 29 Jan 16:38:28 16:43:19 38° 71° (ENE) 16:48:16 437.490
JUGNU 29 Jan 16:45:23 16:47:48 13° 171° (S) 16:50:17 437.505
CUTE-I 29 Jan 16:57:56 17:03:08 59° 73° (ENE) 17:08:23 437.470
SO-50 29 Jan 17:09:54 17:10:34 10° 39° (NE) 17:11:27 436.795
O/OREOS (USA 219) 29 Jan 17:16:15 17:17:27 11° 307° (NW) 17:18:24 437.305
HO-68 29 Jan 17:46:16 17:47:38 11° 55° (NE) 17:49:31 435.675
MOZHAYETS 4 29 Jan 18:03:37 18:05:24 12° 294° (WNW) 18:06:56
PRISM 29 Jan 18:09:06 18:13:17 87° 102° (ESE) 18:17:27 437.425
CUBESAT XI-V 29 Jan 18:17:41 18:22:23 74° 101° (E) 18:27:05 437.345
Cubesat XI-IV 29 Jan 18:19:19 18:23:34 23° 266° (W) 18:27:43 437.490
JUGNU 29 Jan 18:32:43 18:36:02 15° 181° (S) 18:39:22 437.505
STRAND 1 29 Jan 18:35:34 18:40:44 74° 103° (ESE) 18:45:52 437.568
CANX-2 29 Jan 18:36:47 18:38:26 12° 67° (ENE) 18:40:18 2200.000
CUTE-I 29 Jan 18:40:34 18:43:42 15° 270° (W) 18:46:33 437.470
GOMX 1 29 Jan 18:47:04 18:50:28 19° 66° (ENE) 18:54:11 467.674
SO-50 29 Jan 18:47:12 18:52:07 68° 58° (ENE) 18:57:01 436.795
BRITE-PL 29 Jan 18:53:11 18:57:30 30° 69° (ENE) 19:02:12 437.365/2234.400
DOVE 4 29 Jan 18:57:14 19:00:19 17° 66° (ENE) 19:03:43 437.250
YUBILEINY 29 Jan 18:58:37 19:07:10 68° 93° (E) 19:15:48 435.215
CUTE 1.7 + AOD 2 29 Jan 18:59:17 19:02:23 20° 70° (ENE) 19:05:37 437.475
SRMSAT 29 Jan 19:14:01 19:17:16 15° 176° (S) 19:20:33 437.500
HO-68 29 Jan 19:27:11 19:34:13 66° 71° (ENE) 19:41:19 435.675
SEEDS 29 Jan 19:28:18 19:32:12 36° 73° (ENE) 19:36:08 437.485
UKube-1 29 Jan 19:41:14 19:41:29 10° 65° (ENE) 19:42:00 .
CUBEBUG 2 29 Jan 19:48:57 19:52:00 18° 68° (ENE) 19:55:14 437.445
COMPASS 1 29 Jan 19:53:46 19:57:56 61° 76° (ENE) 20:02:06 437.405
ZACube-1 29 Jan 19:55:02 19:57:12 14° 67° (ENE) 19:59:36 437.345
CUBESAT XI-V 29 Jan 19:58:17 19:59:19 10° 295° (WNW) 20:00:03 437.345
DX 1 29 Jan 19:59:54 20:02:48 18° 68° (ENE) 20:05:51 434.975-435.025
FUNcube-1 29 Jan 20:05:55 20:08:53 18° 68° (ENE) 20:12:02 145.935
CANX-2 29 Jan 20:09:47 20:13:59 52° 261° (W) 20:18:12 2200.000
DELFI C3 29 Jan 20:12:11 20:15:46 31° 73° (ENE) 20:19:24 145.870
CINEMA 3 29 Jan 20:15:23 20:20:12 58° 74° (ENE) 20:25:09 145.822/145.860
STRAND 1 29 Jan 20:17:06 20:19:23 13° 296° (WNW) 20:21:23 437.568
AAUSAT CUBESAT 2 29 Jan 20:19:36 20:23:48 74° 259° (WSW) 20:28:01 437.432
JUGNU 29 Jan 20:22:18 20:24:18 12° 191° (S) 20:26:13 437.505
GOMX 1 29 Jan 20:23:18 20:28:10 49° 262° (W) 20:33:21 467.674
UWE-3 29 Jan 20:26:26 20:30:41 36° 72° (ENE) 20:35:00 435.000/436.395/437.385
AISAT 29 Jan 20:27:58 20:30:08 14° 66° (ENE) 20:32:31 437.250
SO-50 29 Jan 20:29:59 20:32:12 13° 251° (WSW) 20:34:09 436.795
BRITE-PL 29 Jan 20:31:37 20:35:59 29° 267° (W) 20:40:34 437.365/2234.400
DOVE 4 29 Jan 20:32:43 20:37:37 55° 261° (W) 20:42:47 437.250
CUTE 1.7 + AOD 2 29 Jan 20:34:22 20:38:11 30° 264° (W) 20:41:56 437.475
Oscar 11 29 Jan 20:37:06 20:41:27 82° 76° (ENE) 20:45:49 145.826/435.025
ISS 29 Jan 20:37:08 20:40:18 50° 135° (SE) 20:43:30 145.825
VELOX 1 29 Jan 20:54:18 20:57:55 26° 70° (ENE) 21:01:39 145.980
YUBILEINY 29 Jan 20:58:04 21:04:51 23° 293° (WNW) 21:11:18 435.215
50 SAT 29 Jan 20:58:34 21:01:55 25° 71° (ENE) 21:05:21 437.505
SRMSAT 29 Jan 21:02:37 21:05:41 14° 186° (S) 21:08:42 437.500
CUBEBUG 1 29 Jan 21:02:56 21:04:36 12° 66° (ENE) 21:06:30 437.445
SEEDS 29 Jan 21:05:29 21:08:13 16° 268° (W) 21:10:47 437.485
UKube-1 29 Jan 21:12:52 21:17:10 67° 258° (WSW) 21:21:30 .
HO-68 29 Jan 21:17:20 21:22:34 20° 269° (W) 21:27:28 435.675
CUBEBUG 2 29 Jan 21:23:50 21:28:22 44° 262° (W) 21:32:58 437.445
HUMSAT D 29 Jan 21:26:49 21:31:09 76° 78° (ENE) 21:35:33 437.325/437.525
ZACube-1 29 Jan 21:28:39 21:33:10 55° 261° (W) 21:37:43 437.345
UNISAT 6 29 Jan 21:32:24 21:35:40 21° 93° (E) 21:39:01 437.425
DX 1 29 Jan 21:34:50 21:38:50 35° 262° (W) 21:42:50 434.975-435.025
AIST 1 29 Jan 21:37:23 21:41:27 38° 79° (ENE) 21:45:33
FUNcube-1 29 Jan 21:40:37 21:44:58 41° 262° (W) 21:49:19 145.935
POPSAT HIP 1 29 Jan 21:41:53 21:44:16 15° 91° (E) 21:46:50 437.405
DUCHIFAT 1 29 Jan 21:44:03 21:46:34 16° 92° (E) 21:49:15 145.980
DELFI C3 29 Jan 21:48:19 21:51:07 17° 267° (W) 21:53:47 145.870
CINEMA 3 29 Jan 21:55:12 21:57:52 14° 271° (W) 22:00:17 145.822/145.860
AISAT 29 Jan 22:02:04 22:06:23 50° 261° (W) 22:10:45 437.250
UWE-3 29 Jan 22:03:51 22:07:21 20° 268° (W) 22:10:45 435.000/436.395/437.385
ESTCUBE 1 29 Jan 22:06:48 22:11:17 73° 75° (ENE) 22:15:46 437.505/2401.250
ANTELSAT 29 Jan 22:07:39 22:12:00 54° 99° (E) 22:16:14 437.575/2403.000
ISS 29 Jan 22:14:37 22:17:02 18° 332° (NNW) 22:19:25 145.825
TIGRISAT 29 Jan 22:14:58 22:19:23 65° 101° (E) 22:23:40 435.000
NANOSAT C BR1 29 Jan 22:17:35 22:21:38 39° 98° (E) 22:25:40 145.865
SPROUT 29 Jan 22:20:07 22:23:17 21° 70° (ENE) 22:26:35 437.525
VELOX 1 29 Jan 22:30:48 22:34:29 25° 265° (W) 22:38:07 145.980
QB50P2 29 Jan 22:32:08 22:36:25 61° 101° (E) 22:40:39 145.880/145.840
50 SAT 29 Jan 22:33:41 22:37:01 22° 266° (W) 22:40:15 437.505
CUBEBUG 1 29 Jan 22:36:19 22:40:34 54° 260° (W) 22:44:52 437.445
QB50P1 29 Jan 22:41:12 22:45:31 78° 102° (ESE) 22:49:48 145.935-145.965
BUGSAT 1 29 Jan 22:49:22 22:53:40 74° 101° (ESE) 22:57:56 437.445
TISAT 1 29 Jan 22:53:52 22:57:56 50° 74° (ENE) 23:02:05 437.305
POLYITAN 1 29 Jan 22:56:29 23:00:48 68° 284° (WNW) 23:05:02 437.675
UNISAT 6 29 Jan 23:08:40 23:12:33 30° 289° (WNW) 23:16:18 437.425
GONETS M04 29 Jan 23:10:03 23:14:05 15° 80° (E) 23:18:48
AIST 1 29 Jan 23:16:16 23:18:50 15° 272° (W) 23:21:12
POPSAT HIP 1 29 Jan 23:16:21 23:20:25 40° 287° (WNW) 23:24:24 437.405
DUCHIFAT 1 29 Jan 23:18:37 23:22:38 38° 287° (WNW) 23:26:34 145.980
SWISSCUBE 29 Jan 23:38:22 23:42:13 26° 69° (ENE) 23:46:11 437.505
ANTELSAT 29 Jan 23:46:23 23:48:22 12° 294° (WNW) 23:50:06 437.575/2403.000
BEESAT 29 Jan 23:53:35 23:57:50 34° 71° (ENE) 00:02:09 436.000
NANOSAT C BR1 29 Jan 23:54:32 23:57:14 16° 292° (WNW) 23:59:45 145.865
TIGRISAT 29 Jan 23:54:34 23:55:37 11° 295° (WNW) 23:56:24 435.000
SPROUT 29 Jan 23:55:26 23:59:15 29° 264° (W) 00:03:01 437.525
ITUPSAT 1 29 Jan 23:57:50 00:02:11 37° 72° (ENE) 00:06:35 437.325
QB50P2 30 Jan 00:10:42 00:11:52 11° 294° (WNW) 00:12:47 145.880/145.840
BEESAT 3 30 Jan 00:27:36 00:29:58 16° 110° (ESE) 00:32:32 437.485
TISAT 1 30 Jan 00:32:32 00:34:08 12° 270° (W) 00:35:30 437.305
Oscar 19 30 Jan 00:50:27 00:55:21 45° 98° (E) 01:00:16 437.125/150
GONETS M04 30 Jan 01:01:06 01:09:54 88° 96° (E) 01:18:41
ITAMSAT 1 30 Jan 01:08:55 01:12:55 23° 94° (E) 01:17:03 435.822/435.867
SWISSCUBE 30 Jan 01:15:53 01:20:02 29° 264° (W) 01:24:07 437.505
STARS 30 Jan 01:30:18 01:34:32 45° 73° (ENE) 01:38:49 437.465
BEESAT 30 Jan 01:32:06 01:35:47 21° 266° (W) 01:39:22 436.000
ITUPSAT 1 30 Jan 01:36:43 01:40:14 20° 267° (W) 01:43:38 437.325
KKS-1 30 Jan 01:38:14 01:42:44 88° 68° (ENE) 01:47:15 437.445
O/OREOS (USA 219) 30 Jan 01:45:17 01:49:54 89° 251° (WSW) 01:54:30 437.305
M-CUBED/EXP-1 PRIME 30 Jan 01:46:20 01:50:13 45° 70° (ENE) 01:53:50 437.505
BEESAT 2 30 Jan 01:50:26 01:54:31 65° 301° (WNW) 01:58:41 435.950
AIST 2 30 Jan 01:50:35 01:54:38 47° 116° (ESE) 01:58:47 435.215
BEESAT 3 30 Jan 02:03:56 02:07:49 40° 305° (NW) 02:11:45 437.485
DANDE 30 Jan 02:07:18 02:11:19 15° 81° (E) 02:16:03 436.750
Gurwin Techsat 1B 30 Jan 02:09:51 02:15:08 63° 100° (E) 02:20:24 435.225
AUBIESAT-1 30 Jan 02:18:39 02:22:43 77° 253° (WSW) 02:26:28 437.475
AO-7 30 Jan 02:24:10 02:28:44 16° 89° (E) 02:33:52 29.400- 29.500
CUSAT 1 30 Jan 02:29:09 02:35:33 28° 87° (E) 02:42:26 437.405
Oscar 19 30 Jan 02:30:43 02:34:25 20° 293° (WNW) 02:37:57 437.125/150
ITAMSAT 1 30 Jan 02:47:43 02:52:34 39° 289° (WNW) 02:57:22 435.822/435.867
RS-15 30 Jan 02:49:10 02:57:31 28° 106° (ESE) 03:06:18 29.354- 29.394
GONETS M04 30 Jan 03:02:35 03:08:08 17° 297° (WNW) 03:13:08
ISS 30 Jan 03:07:18 03:10:05 24° 31° (NNE) 03:12:52 145.825
STARS 30 Jan 03:08:49 03:11:19 14° 269° (W) 03:13:36 437.465
PCSat 30 Jan 03:15:36 03:20:49 53° 113° (ESE) 03:26:06 145.827
HORYU 2 30 Jan 03:22:15 03:26:42 72° 284° (WNW) 03:31:06 437.375
MOZHAYETS 4 30 Jan 03:23:43 03:28:02 43° 73° (ENE) 03:32:24
M-CUBED/EXP-1 PRIME 30 Jan 03:23:50 03:25:22 12° 262° (W) 03:26:39 437.505
JAS-2 30 Jan 03:26:05 03:30:32 23° 94° (E) 03:35:36 435.910
AIST 2 30 Jan 03:30:42 03:33:34 17° 313° (NW) 03:36:20 435.215
